Location: Berberust
(43.0333°N, 0.0333°W)
Time: 15:16:37
(UTC+00:00)

Daily predictions for brighter satellites

Satellite Brightness Start Highest point End
(mag) Time Altitude Azimuth Time Altitude Azimuth Time Altitude Azimuth
STARLINK-1028 3.0 18:01:53 10° SW 18:05:08 85° NW 18:08:24 10° NE
Cosmos 1340 4.2 18:02:56 10° SE 18:05:24 17° E 18:07:54 10° NE
STARLINK-1051 3.0 18:02:20 10° SW 18:05:34 84° NW 18:08:50 10° NE
Cosmos 1633 Rocket 3.5 18:01:46 10° SSE 18:05:46 37° E 18:09:47 10° NNE
STARLINK-1021 3.0 18:03:22 10° SW 18:06:38 82° NNW 18:09:53 10° NE
STARLINK-1019 3.1 18:04:52 10° WSW 18:08:07 80° NNW 18:11:23 10° NE
SKYMED 2 3.5 18:05:14 10° NNE 18:09:35 78° ESE 18:13:55 10° S
STARLINK-1012 3.1 18:06:22 10° WSW 18:09:38 77° NW 18:12:54 10° NE
Cosmos 2016 Rocket 4.0 18:04:09 10° S 18:10:14 83° E 18:16:24 10° N
STARLINK-1068 4.5 18:06:37 10° SSW 18:10:22 34° SE 18:14:06 10° ENE
STARLINK-81 3.8 18:06:58 10° WSW 18:10:57 67° NNW 18:14:58 10° NE
Cosmos 1666 Rocket 3.7 18:07:07 10° S 18:11:28 55° E 18:15:52 10° NNE
STARLINK-1026 3.2 18:09:23 10° WSW 18:12:38 73° NW 18:15:55 10° NE
STARLINK-54 4.0 18:08:50 10° WSW 18:12:49 60° NNW 18:16:48 10° NE
STARLINK-1013 3.2 18:10:56 10° WSW 18:14:11 70° NW 18:17:27 10° NE
STARLINK-77 3.9 18:10:18 10° WSW 18:14:17 63° NNW 18:18:18 10° NE
STARLINK-1009 3.2 18:12:27 10° WSW 18:15:42 68° NW 18:18:57 10° NE
STARLINK-25 3.9 18:11:57 10° WSW 18:15:56 61° NNW 18:19:55 10° NE
STARLINK-1015 3.3 18:14:00 10° WSW 18:17:15 66° NW 18:20:31 10° NE
STARLINK-71 4.1 18:13:52 10° WSW 18:17:49 55° NNW 18:21:47 10° NE
STARLINK-79 4.0 18:15:17 10° WSW 18:19:14 58° NNW 18:23:14 10° NE
Cosmos 1782 4.4 18:15:29 10° NNW 18:19:15 40° W 18:22:59 10° SSW
STARLINK-1060 4.2 18:16:23 10° SSW 18:20:15 41° SE 18:24:05 10° ENE
STARLINK-78 4.1 18:16:59 10° WSW 18:20:57 56° NNW 18:24:55 10° NE
STARLINK-57 4.2 18:18:45 10° WSW 18:22:41 53° NNW 18:26:39 10° NE
STARLINK-49 4.1 18:20:17 10° WSW 18:24:13 54° NNW 18:28:11 10° NE
Meteor 1-10 Rocket 4.3 18:19:01 10° N 18:24:39 86° W 18:30:12 10° S
STARLINK-1030 4.1 18:21:17 10° SSW 18:25:14 45° SE 18:28:53 12° ENE
SL-4 R/B 3.4 18:21:12 10° WNW 18:25:45 45° SW 18:30:04 10° SSE
NOSS 3-1 (C) 3.3 18:20:21 10° SW 18:25:48 89° NW 18:32:07 10° NE
STARLINK-27 4.2 18:21:57 10° WSW 18:25:53 52° NNW 18:29:50 10° NE
Cosmos 2233 Rocket 4.0 18:20:08 10° SSE 18:26:06 57° E 18:32:09 10° NNE
STARLINK 1040 3.8 18:24:25 10° W 18:27:05 38° NNW 18:29:45 10° NE
STARLINK-74 4.2 18:23:38 10° WSW 18:27:33 51° NNW 18:31:30 10° NE
STARLINK-39 4.3 18:25:17 10° WSW 18:29:12 50° NNW 18:33:08 10° NE
STARLINK-1047 3.9 18:25:22 10° SSW 18:29:24 50° SE 18:32:58 13° ENE
STARLINK-1020 3.9 18:26:12 10° SSW 18:30:10 49° SE 18:33:39 13° ENE
Cosmos 1862 3.6 18:26:13 10° SSW 18:30:11 70° W 18:34:11 10° N
STARLINK-31 4.3 18:27:00 10° WSW 18:30:54 48° NNW 18:34:49 10° NE
Cosmos 1812 2.6 18:27:44 10° N 18:31:36 68° E 18:35:26 10° SSE
USA 116 3.8 18:27:58 10° NNE 18:31:57 73° ESE 18:36:26 10° S
Cosmos 2369 Rocket 2.2 18:27:02 10° S 18:32:36 65° ESE 18:38:15 10° NNE
STARLINK-69 4.4 18:28:52 10° WSW 18:32:44 45° NNW 18:36:37 10° NE
CZ-2D R/B 3.2 18:30:07 10° SSE 18:33:58 67° ENE 18:37:51 10° N
STARLINK-21 4.4 18:30:20 10° WSW 18:34:13 46° NNW 18:38:07 10° NE
STARLINK-1052 3.8 18:31:08 10° SW 18:35:09 54° SE 18:38:27 15° ENE
COSMOS 2487 4.4 18:36:18 10° NNE 18:37:45 13° NE 18:37:45 13° NE
STARLINK-76 4.5 18:35:21 10° W 18:39:12 43° NNW 18:42:53 11° NE
STARLINK-1035 3.7 18:35:06 10° SW 18:39:19 66° SE 18:42:43 15° ENE
Cosmos 1777 Rocket 4.0 18:37:01 10° NNW 18:42:20 82° ENE 18:47:36 10° SSE
STARLINK-1033 3.6 18:40:59 10° SW 18:45:04 65° SE 18:48:00 18° ENE
Sich 1 4.3 18:41:09 10° SSW 18:45:14 43° WNW 18:49:20 10° N
CRYOSAT 2 4.4 18:40:43 10° SSE 18:45:31 61° E 18:50:22 10° N
Cosmos 1346 Rocket 3.1 18:41:50 10° SSE 18:45:36 41° E 18:49:21 10° NNE
HJ-1C 3.6 18:45:57 10° SSE 18:49:07 45° ENE 18:52:18 10° N
STARLINK-1027 3.6 18:45:41 10° SW 18:49:56 85° SE 18:53:00 18° NE
Cosmos 2242 Rocket 4.0 18:45:59 10° N 18:50:18 42° ENE 18:54:38 10° SSE
ADEOS Rocket 3.6 18:43:36 10° NNE 18:51:25 75° ESE 18:59:04 10° S
Cosmos 1470 Rocket 3.4 18:47:20 10° S 18:51:38 66° E 18:56:00 10° NNE
STARLINK-1023 4.3 18:50:08 10° W 18:52:59 32° NNW 18:55:01 16° NNE
STARLINK-1024 3.5 18:50:53 10° SW 18:55:00 78° SE 18:57:34 22° ENE
Cosmos 2263 4.2 18:49:42 10° SSW 18:55:27 71° ESE 19:01:12 10° NNE
COSMO-SKYMED 1 4.5 18:53:37 10° N 18:57:29 32° WNW 19:01:21 10° SW
NOSS 2-3 (E) 3.5 18:54:44 10° SSW 18:58:59 81° SE 19:03:51 11° NE
Cosmos 1862 Rocket 3.5 18:55:26 10° N 18:59:48 87° W 19:04:09 10° S
SL-27 R/B 3.3 18:57:53 10° NNW 19:01:07 47° WSW 19:04:17 10° S
Cosmos 724 4.2 18:55:43 10° NNW 19:01:29 66° NE 19:06:27 14° SE
Lacrosse 4 Rocket 4.2 18:58:51 10° W 19:01:34 16° NW 19:04:20 10° N
CSL-04 Rocket 4.2 18:56:19 10° S 19:01:49 65° WSW 19:07:18 10° NNW
ARGOS 3.7 18:58:16 16° SE 19:01:59 36° ENE 19:06:53 10° N
STARLINK-1032 3.5 19:00:50 10° SW 19:04:58 89° NW 19:07:09 27° NE
Aureole 2 Rocket 3.6 19:03:32 10° SW 19:05:55 31° WNW 19:08:21 10° N
STARLINK-1011 3.6 19:05:48 10° SW 19:09:57 82° NW 19:11:56 30° NE
Meteor 1-20 Rocket 4.1 19:06:36 10° S 19:11:55 57° E 19:17:20 10° NNE
Lacrosse 5 rocket 3.9 19:10:09 10° NNW 19:12:32 14° N 19:14:39 11° NNE
Okean 1 4.4 19:09:54 10° NNE 19:12:22 27° NE 19:12:22 27° NE
NOSS 2-3 (D) 3.7 19:09:41 10° SW 19:13:57 80° NW 19:18:07 14° NE
STARLINK-1036 3.7 19:10:47 10° WSW 19:14:56 76° NNW 19:16:43 33° NE
Cosmos 1703 Rocket 3.7 19:12:07 10° N 19:16:27 49° ENE 19:18:13 31° SE
Cosmos 2297 Rocket 4.3 19:15:28 10° NNE 19:16:44 11° NE 19:16:44 11° NE
Ariane Rocket 2.9 19:12:27 10° SSE 19:17:32 81° ENE 19:22:40 10° NNW
Meteor 1-14 Rocket 4.5 19:12:59 10° SSE 19:18:09 42° E 19:23:19 10° NNE
CZ-4 R/B 4.0 19:15:17 10° SSW 19:18:41 24° W 19:22:04 10° NW
STARLINK-29 3.2 19:15:27 10° NW 19:18:49 56° NNE 19:18:54 56° NE
STARLINK-1044 3.8 19:15:47 10° WSW 19:19:54 70° NNW 19:21:29 36° NE
Okean 1-7 3.2 19:17:35 10° N 19:21:46 47° ENE 19:21:57 47° E
Gbstr 26 Del rocket 3.3 19:17:56 10° SSW 19:21:49 44° SE 19:22:13 43° ESE
NOSS 3-1 (A) 3.8 19:17:36 10° SW 19:23:02 58° NW 19:29:21 10° NNE
FALCON 9 DEB 3.0 19:21:22 10° NW 19:24:50 75° NE 19:24:50 75° NE
H-2A R/B 2.1 19:20:05 12° SSE 19:25:04 65° ENE 19:30:28 10° N
Cosmos 489 Rocket 4.5 19:22:59 10° S 19:29:09 57° ESE 19:35:20 10° NNE
STARLINK-1037 4.0 19:25:45 10° WSW 19:29:50 60° NNW 19:31:01 41° NNE
STARLINK-52 3.5 19:26:57 10° NW 19:29:52 54° N 19:29:52 54° N
SJ 16-02 2.3 19:26:36 10° N 19:29:34 31° NNE 19:29:34 31° NNE
Cosmos 1464 Rocket 3.9 19:25:49 10° S 19:32:07 73° E 19:38:30 10° NNE
STARLINK-1031 4.2 19:28:13 10° WSW 19:32:09 52° NNW 19:33:12 39° NNE
Cosmos 1943 Rocket 3.8 19:29:27 10° WSW 19:34:29 34° NW 19:39:30 10° N
STARLINK-1059 4.1 19:30:49 10° WSW 19:34:53 56° NNW 19:35:52 43° NNE
Cosmos 2227 Rocket 4.2 19:32:53 10° NNE 19:34:26 13° NNE 19:34:26 13° NNE
Nadezhda 4 Rocket 4.1 19:30:30 10° N 19:36:37 51° ENE 19:38:24 40° ESE
Cosmos 990 Rocket 4.1 19:31:50 10° N 19:36:48 49° ENE 19:36:48 49° ENE
STARLINK-60 4.2 19:36:34 10° WNW 19:39:34 39° SW 19:39:34 39° SW
Cosmos 44 3.7 19:35:27 10° NW 19:39:45 53° WSW 19:42:01 27° S
STARLINK-1057 4.2 19:35:48 10° WSW 19:39:51 52° NNW 19:40:37 45° N
Cosmos 2285 Rocket 4.4 19:35:07 10° NNW 19:41:25 64° WSW 19:47:43 10° S
ARGOS Delta rocket 4.2 19:43:32 42° NNE 19:43:32 42° NNE 19:46:41 10° N
Cosmos 1937 Rocket 4.1 19:38:12 10° N 19:42:18 38° NE 19:42:18 38° NE
STARLINK-1034 4.3 19:40:50 10° WSW 19:44:51 49° NNW 19:45:25 45° N
Meteor 1-19 Rocket 4.2 19:39:26 10° N 19:45:14 64° ENE 19:46:18 53° SE
CZ-2C R/B 3.2 19:44:21 21° SSE 19:48:24 85° ENE 19:54:11 10° NNW
STARLINK-1068 4.4 19:45:52 10° WSW 19:49:51 45° NNW 19:50:11 44° NNW
Timation 2 Rocket 4.2 19:43:11 10° NNW 19:49:58 57° ENE 19:51:09 51° E
Lacrosse 5 3.5 19:46:42 10° S 19:48:32 20° S 19:48:32 20° S
Cosmos 2034 Rocket 3.8 19:45:13 10° S 19:51:20 73° E 19:57:29 10° NNE
Meteor 2-4 Rocket 4.3 19:47:39 10° N 19:52:18 43° NE 19:52:18 43° NE
SJ-6B 4.2 19:58:19 31° NNW 19:58:19 31° NNW 20:00:22 10° NNW
BREEZE-M DEB (TANK) 4.3 19:30:46 10° W 19:56:42 58° NNW 19:59:02 39° NE
SPOT 3 Rocket 3.5 20:07:22 83° NW 20:07:22 83° NW 20:12:25 10° NNW
USA 267 3.5 20:17:09 51° S 20:17:09 51° S 20:22:22 10° SSW
Cosmos 2369 Rocket 4.4 20:12:47 10° W 20:17:08 22° NW 20:21:31 10° N
Cosmos 468 Rocket 4.3 20:12:46 10° SSW 20:17:59 65° WNW 20:18:27 62° NW
Cosmos 1092 Rocket 4.3 20:12:50 10° N 20:17:45 53° NNE 20:17:45 53° NNE
Resurs 01 Rocket 4.1 20:29:42 14° N 20:29:42 14° N 20:30:23 10° N
Cosmos 1898 Rocket 4.1 20:23:09 10° NNW 20:27:25 52° WNW 20:27:25 52° WNW
USA 234 4.0 20:51:08 43° N 20:51:08 43° N 20:56:04 10° NW
Lacrosse 5 rocket 4.4 20:49:40 10° NNW 20:50:18 13° NNW 20:50:18 13° NNW
Cosmos 2297 Rocket 4.2 20:56:50 10° NNW 20:58:33 20° N 20:58:33 20° N
SJ 16-02 4.3 21:05:43 10° NW 21:06:36 14° WNW 21:06:36 14° WNW
Cosmos 2227 Rocket 4.5 21:15:01 10° NNW 21:16:16 17° NNW 21:16:16 17° NNW
CENTAUR R/B 4.1 21:23:05 10° NNW 21:27:50 36° N 21:27:50 36° N
